[[{"header":{"parameterUnit":"m.s-1","parameterCategory":1,"la1":30.2991,"la2":30.254,"lo1":-89.0895,"lo2":-89.0444,"dy":0.0017,"dx":0.0017,"nx":28,"ny":28,"refTime":"2025-03-28T09:00:00:Z","depth":0,"parameterNumber":2,"parameterNumberName":"U-component_of_WINDS"},"data":[0,0,0,0,0,0,0,0,0,0,0,0,0,0,0,0,0,0,0,0,0,0,0,0,0,0,0,0,0,0,0,0,0,0,0,0,0,0,0,0,0,0,0,0,0,0,0,0,0,0,0,0,0,0,0,0,0,0,-5.5672,-5.5674,0,-5.5842,-5.5844,-5.5846,-5.5879,-5.5878,-5.5876,-5.5875,-5.6045,-5.6051,-5.6056,0,0,0,0,0,0,0,0,0,0,0,0,0,-5.5374,-5.5379,-5.5672,-5.5674,-5.5676,-5.5842,-5.5844,-5.5846,-5.5879,-5.5878,-5.5876,-5.5874,-5.6043,-5.605,-5.6057,0,0,0,0,0,0,0,0,0,0,0,0,0,-5.5519,-5.5381,-5.5672,-5.5713,-5.5718,-5.5841,-5.5844,-5.5847,-5.5879,-5.5878,-5.5876,-5.5874,-5.6041,-5.6049,-5.6058,-5.6151,0,0,-5.6084,-5.6088,0,0,0,0,0,0,0,0,-5.5511,-5.553,-5.5705,-5.571,-5.5716,-5.5837,-5.5801,-5.5949,-5.588,-5.5818,-5.5875,-5.5873,-5.5977,-5.5991,-5.6027,-5.6159,-5.6166,-5.6085,-5.609,-5.6094,-5.6096,0,0,0,0,0,0,0,-5.5501,-5.5523,-5.5739,-5.5707,-5.5714,-5.5722,-5.574,-5.5829,-5.5907,-5.5823,-5.5826,-5.5846,-5.598,-5.6019,-5.6031,-5.6168,-5.6085,-5.6092,-5.6098,-5.6101,-5.6384,-5.6386,0,0,0,0,0,0,-5.5484,-5.5514,-5.5734,-5.5744,-5.5607,-5.5729,-5.5749,-5.58,-5.5906,-5.592,-5.5848,-5.5847,-5.6005,-5.6021,-5.6037,-5.6152,-5.6094,-5.6102,-5.6107,-5.6381,-5.6384,-5.6387,0,0,0,0,0,0,-5.5477,-5.5503,-5.5727,-5.563,-5.5659,-5.5736,-5.5793,-5.5805,-5.5843,-5.5924,-5.5938,-5.5873,-5.6004,-5.6025,-5.6122,-5.6158,-5.6106,-5.6114,-5.6379,-5.6382,-5.6385,-5.6382,0,0,0,0,0,0,-5.5469,-5.5501,-5.5537,-5.5631,-5.5664,-5.581,-5.5795,-5.581,-5.5859,-5.5859,-5.5951,-5.5965,-5.6004,-5.6109,-5.6131,-5.6169,-5.612,-5.6376,-5.638,-5.6384,-5.6379,-5.6385,-5.6389,0,0,0,0,0,-5.5458,-5.5529,-5.5539,-5.5565,-5.5712,-5.5812,-5.5831,-5.5876,-5.5861,-5.5898,-5.595,-5.5962,-5.6151,-5.6119,-5.6144,-5.6185,-5.6373,-5.6379,-5.6384,-5.6376,-5.6383,-5.6389,0,0,0,0,0,0,-5.5436,-5.5542,-5.5554,-5.5658,-5.5726,-5.5817,-5.5865,-5.5882,-5.5954,-5.5952,-5.6003,-5.6024,-5.6117,-5.6162,-5.6123,-5.628,-5.6261,-5.6272,-5.6247,-5.6255,-5.626,-5.6246,-5.6128,0,0,0,0,0,-5.5444,-5.5517,-5.5605,-5.5688,-5.5722,-5.5787,-5.5833,-5.5862,-5.5933,-5.5962,-5.6021,-5.6089,-5.6164,-5.6212,-5.6286,-5.6386,-5.6406,-5.6427,-5.6432,-5.6436,-5.6444,-5.6499,-5.6508,-5.6404,-5.6404,-5.6404,0,0,-5.5459,-5.5526,-5.5569,-5.5685,-5.5741,-5.5815,-5.5811,-5.5889,-5.5944,-5.5973,-5.6068,-5.6114,-5.6194,-5.6293,-5.6339,-5.6332,-5.6477,-5.6443,-5.6445,-5.6451,-5.6505,-5.6515,-5.6524,-5.6407,-5.6407,-5.6406,0,0,-5.5524,-5.5584,-5.5658,-5.5715,-5.58,-5.5844,-5.5862,-5.5952,-5.5983,-5.608,-5.6104,-5.6169,-5.6298,-5.6353,-5.6398,-5.6486,-5.6499,-5.6509,-5.6535,-5.6588,-5.6596,-5.6604,-5.6633,-5.6643,-5.6516,-5.6516,-5.6516,0,-5.5532,-5.5645,-5.5694,-5.5772,-5.5821,-5.5854,-5.5929,-5.5981,-5.6086,-5.6119,-5.611,-5.6272,-5.6328,-5.6439,-5.6461,-5.6497,-5.6518,-5.6497,-5.6591,-5.6599,-5.6607,-5.6636,-5.6647,-5.6517,-5.6517,-5.6517,-5.6517,0,-5.565,-5.5728,-5.5778,-5.5879,-5.5935,-5.6011,-5.607,-5.6121,-5.6146,-5.619,-5.6287,-5.6356,-5.6444,-5.6473,-5.6497,-5.6588,-5.6581,-5.6581,-5.6563,-5.6617,-5.6644,-5.6656,-5.6517,-5.6517,-5.6517,-5.6517,0,0,-5.5704,-5.5833,-5.585,-5.5896,-5.5993,-5.6054,-5.6131,-5.6218,-5.6259,-5.6331,-5.6395,-5.6504,-5.6505,-5.6556,-5.6588,-5.6635,-5.6697,-5.6629,-5.6632,-5.6637,-5.6799,-5.6796,-5.6808,-5.6708,-5.671,-5.6712,-5.6792,0,-5.5779,-5.5919,-5.5966,-5.6081,-5.6153,-5.6185,-5.6252,-5.6318,-5.6362,-5.6428,-5.6476,-5.6552,-5.6549,-5.658,-5.6628,-5.6679,-5.673,-5.6675,-5.6766,-5.6769,-5.6743,-5.6823,-5.6821,-5.6893,-5.6803,-5.6805,-5.6807,0,-5.5886,-5.5959,-5.6082,-5.617,-5.6202,-5.6261,-5.6344,-5.6408,-5.6484,-5.6512,-5.657,-5.6598,-5.6678,-5.6658,-5.6769,-5.673,-5.6771,-5.6802,-5.6806,-5.6814,-5.6789,-5.6831,-5.6917,-5.6927,-5.6824,-5.6823,-5.6822,0,-5.591,-5.604,-5.613,-5.6169,-5.6274,-5.6315,-5.6361,-5.6435,-5.6484,-5.6557,-5.6589,-5.667,-5.6713,-5.6775,-5.6823,-5.6804,-5.6929,-5.6913,-5.6953,-5.6952,-5.6976,-5.6973,-5.7067,-5.7006,-5.7006,-5.7006,-5.7006,0,-5.5988,-5.6061,-5.6142,-5.6197,-5.628,-5.6333,-5.6413,-5.6461,-5.6526,-5.659,-5.6624,-5.6682,-5.6744,-5.6811,-5.685,-5.6935,-5.6955,-5.6979,-5.6988,-5.6974,-5.6971,-5.7,-5.6995,-5.7009,-5.7008,-5.7008,-5.7007,0,-5.6028,-5.6086,-5.6185,-5.6278,-5.6303,-5.6359,-5.6437,-5.6492,-5.6537,-5.6618,-5.664,-5.6711,-5.6792,-5.6847,-5.695,-5.6976,-5.7067,-5.7077,-5.7042,-5.7045,-5.7082,-5.7077,-5.7195,-5.7212,-5.7142,-5.7143,-5.7143,0,-5.6072,-5.6129,-5.6228,-5.6274,-5.6319,-5.6393,-5.6443,-5.6498,-5.6549,-5.664,-5.6683,-5.6766,-5.6835,-5.6962,-5.7022,-5.7101,-5.7111,-5.7147,-5.7123,-5.7107,-5.7109,-5.7104,-5.7109,-5.715,-5.715,-5.7151,-5.7151,0,-5.6144,-5.617,-5.6243,-5.6325,-5.6385,-5.6452,-5.652,-5.6555,-5.6621,-5.6677,-5.676,-5.6814,-5.692,-5.7001,-5.7086,-5.7132,-5.7152,-5.7159,-5.7172,-5.7158,-5.7134,-5.7145,-5.7049,-5.7155,-5.7155,-5.7154,-5.7154,-5.7154,-5.6187,-5.6238,-5.6316,-5.6395,-5.6452,-5.6514,-5.6569,-5.6623,-5.6694,-5.6784,-5.6813,-5.6899,-5.6973,-5.7089,-5.7136,-5.7203,-5.72,-5.722,-5.7224,-5.7227,-5.7226,-5.7126,-5.7219,-5.7219,-5.7219,-5.7219,-5.7219,0,-5.6258,-5.631,-5.6383,-5.6477,-5.6539,-5.6555,-5.663,-5.6681,-5.6756,-5.6824,-5.6892,-5.6987,-5.7066,-5.7134,-5.7215,-5.7256,-5.7267,-5.7275,-5.7272,-5.7281,-5.7225,-5.7205,-5.7265,-5.7265,-5.7265,-5.7265,-5.7265,-5.7265,-5.6303,-5.6391,-5.6426,-5.6543,-5.6594,-5.6679,-5.6721,-5.6778,-5.6833,-5.6938,-5.7004,-5.7048,-5.7116,-5.7203,-5.7276,-5.7293,-5.7321,-5.7326,-5.7346,-5.7291,-5.7286,-5.728,-5.7261,-5.7332,-5.7333,-5.7396,-5.7397,-5.7397]},{"header":{"parameterUnit":"m.s-1","parameterCategory":1,"la1":30.2991,"la2":30.254,"lo1":-89.0895,"lo2":-89.0444,"dy":0.0017,"dx":0.0017,"nx":28,"ny":28,"refTime":"2025-03-28T09:00:00:Z","depth":0,"parameterNumber":3,"parameterNumberName":"V-component_of_WINDS"},"data":[0,0,0,0,0,0,0,0,0,0,0,0,0,0,0,0,0,0,0,0,0,0,0,0,0,0,0,0,0,0,0,0,0,0,0,0,0,0,0,0,0,0,0,0,0,0,0,0,0,0,0,0,0,0,0,0,0,0,6.4443,6.4444,0,6.4556,6.4557,6.4558,6.4531,6.4529,6.4527,6.4525,6.4635,6.4639,6.4644,0,0,0,0,0,0,0,0,0,0,0,0,0,6.4201,6.4206,6.4443,6.4444,6.4446,6.4555,6.4557,6.4558,6.4532,6.4529,6.4526,6.4524,6.4633,6.4639,6.4645,0,0,0,0,0,0,0,0,0,0,0,0,0,6.4309,6.4207,6.4443,6.4446,6.4447,6.4555,6.4557,6.4559,6.4532,6.4529,6.4526,6.4523,6.4631,6.4638,6.4646,6.4756,0,0,6.4668,6.4671,0,0,0,0,0,0,0,0,6.4303,6.4318,6.4444,6.4446,6.4448,6.4526,6.4512,6.4625,6.4533,6.45,6.4525,6.4521,6.4601,6.461,6.4639,6.4761,6.4766,6.4669,6.4673,6.4676,6.4679,0,0,0,0,0,0,0,6.4296,6.4313,6.4487,6.4446,6.4448,6.444,6.4452,6.4533,6.4567,6.4502,6.4501,6.4515,6.4601,6.4631,6.4641,6.4767,6.4669,6.4675,6.468,6.4683,6.4988,6.4992,0,0,0,0,0,0,6.4287,6.4307,6.4484,6.4491,6.4366,6.4447,6.4461,6.4504,6.4566,6.4572,6.4517,6.4513,6.462,6.4632,6.4645,6.478,6.4676,6.4683,6.4688,6.4985,6.4989,6.4993,0,0,0,0,0,0,6.4282,6.4303,6.4479,6.4399,6.442,6.4455,6.4504,6.4508,6.4538,6.4577,6.4583,6.4542,6.4618,6.4634,6.4729,6.4783,6.4687,6.4693,6.498,6.4986,6.4991,6.5049,0,0,0,0,0,0,6.4275,6.4302,6.4345,6.44,6.4425,6.4563,6.4507,6.4513,6.4552,6.4547,6.4602,6.4608,6.4617,6.4718,6.4737,6.4791,6.4699,6.4975,6.4983,6.4989,6.5042,6.5056,6.5067,0,0,0,0,0,6.4267,6.4355,6.4347,6.4368,6.4479,6.4566,6.458,6.459,6.4556,6.4599,6.4625,6.4606,6.4774,6.4728,6.4749,6.4806,6.4972,6.4981,6.4989,6.5037,6.5053,6.5067,0,0,0,0,0,0,6.4302,6.4362,6.4354,6.4462,6.451,6.4562,6.4616,6.4607,6.4664,6.4657,6.4665,6.4678,6.4775,6.48,6.4748,6.4917,6.4868,6.4881,6.4898,6.4914,6.4926,6.4918,6.4705,0,0,0,0,0,6.4323,6.439,6.4438,6.4529,6.4553,6.4581,6.4619,6.4623,6.4672,6.4691,6.4723,6.477,6.4833,6.4875,6.4935,6.5046,6.5058,6.5096,6.5108,6.5118,6.5129,6.5192,6.5209,6.502,6.502,6.502,0,0,6.4365,6.4406,6.4448,6.4537,6.4574,6.4643,6.4598,6.4671,6.4722,6.4701,6.4794,6.482,6.4872,6.4977,6.5024,6.5,6.5184,6.5129,6.5136,6.5142,6.5202,6.522,6.5236,6.5026,6.5025,6.5024,0,0,6.4479,6.4516,6.4597,6.4637,6.4695,6.4713,6.4733,6.4787,6.4804,6.4898,6.4884,6.4944,6.5053,6.5092,6.5126,6.5257,6.5243,6.5276,6.5341,6.5402,6.5417,6.543,6.5478,6.5495,6.5287,6.5287,6.5287,0,6.4524,6.4628,6.464,6.4716,6.4756,6.4744,6.4826,6.4862,6.4936,6.4964,6.4937,6.5075,6.5109,6.5224,6.5256,6.5284,6.5307,6.527,6.5414,6.5428,6.544,6.5486,6.5504,6.5291,6.5291,6.529,6.529,0,6.4682,6.4754,6.4813,6.4888,6.4934,6.5013,6.5036,6.5082,6.5082,6.5103,6.52,6.5241,6.5311,6.5338,6.5338,6.5453,6.5437,6.5412,6.5363,6.5462,6.5505,6.5523,6.5297,6.5295,6.5294,6.5293,0,0,6.4818,6.4902,6.4923,6.4958,6.5022,6.5078,6.5157,6.5227,6.5267,6.5319,6.5385,6.5479,6.5457,6.5496,6.55,6.5554,6.5658,6.5523,6.5524,6.5547,6.5789,6.5807,6.5828,6.5649,6.5652,6.5655,6.5785,0,6.4939,6.5079,6.5093,6.5219,6.5287,6.5277,6.5346,6.5392,6.5415,6.5475,6.5498,6.5565,6.5531,6.5555,6.5607,6.5634,6.5706,6.5624,6.571,6.5713,6.5698,6.585,6.587,6.599,6.5801,6.5804,6.5806,0,6.5097,6.5157,6.529,6.5348,6.5377,6.5439,6.5506,6.5564,6.5616,6.5629,6.5674,6.5672,6.5753,6.5701,6.5812,6.5757,6.5793,6.5811,6.5816,6.5824,6.5766,6.5863,6.6029,6.6047,6.5833,6.5831,6.5829,0,6.5185,6.5299,6.5394,6.5424,6.5493,6.5538,6.5568,6.5618,6.566,6.5719,6.5746,6.5812,6.5848,6.5899,6.5915,6.5875,6.6026,6.5975,6.6039,6.6039,6.6071,6.6069,6.6245,6.6093,6.6093,6.6093,6.6092,0,6.5318,6.5401,6.5436,6.5494,6.5586,6.5601,6.5691,6.5719,6.5765,6.5828,6.5822,6.5882,6.5899,6.5961,6.5974,6.6065,6.6081,6.6093,6.6096,6.6095,6.6093,6.6118,6.611,6.6097,6.6096,6.6095,6.6095,0,6.5432,6.5459,6.5563,6.5621,6.5638,6.5703,6.5752,6.5809,6.5831,6.5911,6.5931,6.5965,6.6039,6.606,6.6147,6.6156,6.6263,6.6258,6.6246,6.6247,6.631,6.6304,6.6509,6.6537,6.6365,6.6367,6.6368,0,6.5516,6.558,6.5646,6.5689,6.5723,6.5792,6.5836,6.5854,6.59,6.5967,6.6015,6.6088,6.6147,6.6265,6.6297,6.6364,6.6361,6.6428,6.637,6.6368,6.6363,6.6359,6.6366,6.6439,6.644,6.6442,6.6443,0,6.5662,6.5673,6.5738,6.5809,6.5862,6.5918,6.5971,6.6007,6.6032,6.6084,6.616,6.6207,6.6298,6.6371,6.6439,6.6469,6.6461,6.6461,6.648,6.6479,6.647,6.6477,6.6277,6.6456,6.6455,6.6454,6.6453,6.6453,6.5764,6.5821,6.5878,6.5951,6.5994,6.6045,6.6101,6.6132,6.6197,6.6274,6.628,6.6363,6.6416,6.6508,6.6542,6.6606,6.6586,6.6613,6.662,6.6626,6.6632,6.646,6.6619,6.6618,6.6618,6.6618,6.6617,0,6.5911,6.5948,6.6015,6.6092,6.615,6.6139,6.6198,6.6247,6.6321,6.6372,6.6432,6.652,6.6592,6.663,6.6701,6.6746,6.6744,6.6764,6.6761,6.6768,6.6645,6.6623,6.6764,6.6764,6.6764,6.6764,6.6764,6.6764,6.5994,6.6091,6.6109,6.6227,6.6262,6.6346,6.6381,6.6428,6.6469,6.6569,6.6629,6.6655,6.6701,6.6776,6.6841,6.6851,6.6877,6.69,6.6907,6.6792,6.6777,6.6762,6.6741,6.6906,6.6906,6.7025,6.7026,6.7027]}]]